Home > Weather > Kolding > Past weeks

Flag for Denmark Weather for the Past 2 Weeks in Kolding, Denmark

Now
41 °F

Quite cool.


Feels Like: 35 °F
Forecast: 38 / 48 °F
Wind: 9 mph from Southeast

Location: Vamdrup

Current Time: Apr 29, 2016 at 10:47:54 PM

Latest Report: Apr 29, 2016 at 10:20 PM


Visibility: N/A

Pressure: 29.95 "Hg

Humidity: 93%

Dew Point: 39 °F

Location of KoldingLocation

Historic Weather in Kolding — Graph

°F

Kolding Temperature Yesterday

Maximum temperature yesterday: 46 °F (at 3:50 PM)
Minimum temperature yesterday: 36 °F (at 10:50 PM)
Average temperature yesterday: 41 °F

High & Low Weather Summary for the Past Weeks

 TemperatureHumidityPressure
High54 °F (Apr 22, 1:50 PM)100% (Apr 15, 1:20 AM)30.39 "Hg (Apr 15, 1:20 AM)
Low30 °F (Apr 25, 3:50 AM)43% (Apr 23, 12:50 PM)29.33 "Hg (Apr 26, 5:50 AM)
Average42 °F82%29.78 "Hg
* Reported Apr 14 9:20 PM — Apr 29 9:20 PM, Kolding, Weather by CustomWeather, © 2016

Note: Actual official high and low records may vary slightly from our data, if they occured in-between our weather recording intervals... More about our weather records

Advertising

Kolding Weather History for the Previous 24 Hours

Scroll right to see more
 ConditionsComfort  
Time TempWeatherWind HumidityBarometerVisibility
9:20 PM
Fri, Apr 29
41 °FQuite cool.9 mph87%29.95 "HgN/A
8:50 PM43 °FQuite cool.10 mph81%29.92 "HgN/A
8:20 PM43 °FQuite cool.10 mph81%29.92 "HgN/A
7:50 PM43 °FQuite cool.12 mph87%29.92 "HgN/A
7:20 PM43 °FQuite cool.12 mph87%29.92 "HgN/A
6:50 PM43 °FQuite cool.10 mph87%29.92 "HgN/A
6:20 PM43 °FQuite cool.12 mph87%29.92 "HgN/A
4:50 PM43 °FBroken clouds.12 mph81%29.89 "HgN/A
3:50 PM41 °FSprinkles. Broken clouds.12 mph87%29.89 "HgN/A
2:50 PM43 °FSprinkles. Partly sunny.13 mph87%29.89 "Hg5 mi
1:50 PM41 °FSprinkles. Partly sunny.22 mph87%29.86 "Hg5 mi
12:50 PM45 °FSprinkles. Partly sunny.20 mph81%29.83 "Hg3 mi
12:20 PM46 °FSprinkles. Partly sunny.16 mph71%29.83 "HgN/A
11:50 AM46 °FLight rain. Partly sunny.16 mph71%29.83 "HgN/A
11:20 AM46 °FLight rain. Partly sunny.17 mph71%29.83 "HgN/A
10:50 AM46 °FBroken clouds.17 mph71%29.83 "HgN/A
10:20 AM45 °FBroken clouds.18 mph71%29.83 "HgN/A
9:58 AM45 °FSunny.18 mph71%29.83 "Hg10 mi
8:50 AM43 °FSunny.17 mph76%29.83 "Hg10 mi
8:20 AM41 °FPassing clouds.14 mph81%29.86 "Hg6 mi
7:20 AM37 °FPassing clouds.12 mph93%29.86 "Hg4 mi
6:50 AM37 °FChilly.9 mph93%29.86 "HgN/A
6:20 AM36 °FChilly.9 mph93%29.86 "HgN/A
5:50 AM37 °FChilly.9 mph93%29.86 "HgN/A
5:20 AM36 °FChilly.9 mph100%29.86 "HgN/A
3:20 AM36 °FChilly.8 mph93%29.86 "HgN/A
2:50 AM36 °FChilly.6 mph93%29.86 "HgN/A
2:20 AM36 °FChilly.6 mph87%29.86 "HgN/A
1:50 AM36 °FChilly.7 mph87%29.89 "HgN/A
1:20 AM36 °FChilly.5 mph87%29.89 "HgN/A
12:20 AM36 °FChilly.5 mph87%29.89 "HgN/A
11:50 PM
Thu, Apr 28
36 °FChilly.3 mph87%29.89 "HgN/A
11:20 PM36 °FChilly.6 mph87%29.89 "HgN/A
10:50 PM36 °FChilly.7 mph87%29.89 "HgN/A
10:20 PM37 °FChilly.7 mph81%29.86 "HgN/A
Weather by CustomWeather, © 2016

See weather overviewHow to use our weather pages